Location: Aalen
(48.8330°N, 10.1000°E)
Time: 14:01:26
(UTC+02:00)

SR - Visible Passes

Search period start: 03 August 2021 00:00
Search period end: 13 August 2021 00:00
Orbit: 577 x 877 km, 66.7° (Epoch: 02 August)

Date Brightness Start Highest point End Pass type
(mag) Time Alt. Az. Time Alt. Az. Time Alt. Az.
04 Aug ? 05:04:36 10° SE 05:06:38 12° ESE 05:08:38 10° E visible
06 Aug ? 05:04:26 10° SSE 05:08:38 21° ESE 05:12:41 10° ENE visible
07 Aug ? 04:17:49 10° ESE 04:19:16 11° ESE 04:20:41 10° E visible
08 Aug ? 05:05:35 10° S 05:10:46 35° ESE 05:15:41 10° NE visible
09 Aug ? 04:17:14 10° SSE 04:21:15 20° ESE 04:25:07 10° ENE visible
10 Aug ? 05:07:22 10° SSW 05:13:01 58° ESE 05:18:19 10° NE visible
11 Aug ? 04:18:17 10° S 04:23:21 33° ESE 04:28:10 10° NE visible
12 Aug ? 03:30:08 10° SSE 03:33:51 18° ESE 03:37:32 10° ENE visible
12 Aug ? 05:09:37 10° SW 05:15:23 87° NW 05:20:45 10° NE visible
